This is the latest recevied weather packets stored in our database for station/object N2WH. If no packets are shown the sender has not sent any weather packets the latest 10 day(s).
| Time | Temp. | Humidity | Pressure | Rain* | Wind** | Luminosity | Snow |
|---|---|---|---|---|---|---|---|
| 1777674902 | 16.11° C | 45% | 1011.1 hPa | 0 mm | - | 60 W/m² | - |
| 1777674598 | 16.11° C | 43% | 1011 hPa | 0 mm | - | 62 W/m² | - |
| 1777674295 | 16.11° C | 44% | 1011.1 hPa | 0 mm | - | 60 W/m² | - |
| 1777673991 | 16.11° C | 45% | 1011 hPa | 0 mm | - | 63 W/m² | - |
| 1777673688 | 16.11° C | 43% | 1011.1 hPa | 0 mm | - | 55 W/m² | - |
| 1777673386 | 16.67° C | 43% | 1011.3 hPa | 0 mm | - | 68 W/m² | - |
| 1777673083 | 16.67° C | 44% | 1011.2 hPa | 0 mm | - | 84 W/m² | - |
| 1777672779 | 16.67° C | 43% | 1011.3 hPa | 0 mm | - | 65 W/m² | - |
| 1777672476 | 16.67° C | 44% | 1011.2 hPa | 0 mm | - | 63 W/m² | - |
| 1777672172 | 16.67° C | 43% | 1011 hPa | 0 mm | - | 85 W/m² | - |
| 1777671867 | 16.67° C | 46% | 1011.2 hPa | 0 mm | - | 84 W/m² | - |
| 1777671562 | 16.67° C | 44% | 1011.1 hPa | 0 mm | - | 64 W/m² | - |
| 1777671261 | 16.67° C | 45% | 1011.4 hPa | 0 mm | - | 84 W/m² | - |
| 1777670955 | 16.67° C | 46% | 1011.1 hPa | 0 mm | - | 58 W/m² | - |
| 1777670652 | 16.67° C | 44% | 1011.3 hPa | 0 mm | - | 51 W/m² | - |
| 1777670349 | 17.78° C | 42% | 1011 hPa | 0 mm | - | 65 W/m² | - |
| 1777670047 | 17.78° C | 45% | 1011 hPa | 0 mm | - | 72 W/m² | - |
| 1777669744 | 17.78° C | 43% | 1010.8 hPa | 0 mm | - | 80 W/m² | - |
| 1777669441 | 17.22° C | 44% | 1010.9 hPa | 0 mm | - | 78 W/m² | - |
| 1777669137 | 17.78° C | 44% | 1010.9 hPa | 0 mm | - | 83 W/m² | - |
| 1777668834 | 17.78° C | 42% | 1010.9 hPa | 0 mm | - | 92 W/m² | - |
| 1777668531 | 17.78° C | 44% | 1011.1 hPa | 0 mm | - | 142 W/m² | - |
| 1777668227 | 17.78° C | 42% | 1011 hPa | 0 mm | - | 342 W/m² | - |
| 1777667923 | 17.78° C | 40% | 1010.9 hPa | 0 mm | - | 300 W/m² | - |
| 1777667621 | 18.33° C | 42% | 1010.8 hPa | 0 mm | - | 88 W/m² | - |
* Rain latest hour (hover to see other rain measurements)
** Current wind speed in m/s (hover to see current wind gust speed)